This is the latest recevied weather packets stored in our database for station/object 4S6DRJ-13. If no packets are shown the sender has not sent any weather packets the latest 10 day(s).
| Time | Temp. | Humidity | Pressure | Rain* | Wind** | Luminosity | Snow |
|---|---|---|---|---|---|---|---|
| 1788277603 | 28.33° C | 83% | 1010.9 hPa | 0 mm | 0.45 m/s, 226° | 0 W/m² | - |
| 1788277542 | 28.33° C | 83% | 1010.9 hPa | 0 mm | 0.89 m/s, 224° | 0 W/m² | - |
| 1788277481 | 28.33° C | 82% | 1010.8 hPa | 0 mm | 0.89 m/s, 232° | 0 W/m² | - |
| 1788277420 | 28.33° C | 82% | 1010.7 hPa | 0 mm | 1.34 m/s, 216° | 0 W/m² | - |
| 1788277359 | 28.33° C | 82% | 1010.7 hPa | 0 mm | 0.89 m/s, 278° | 0 W/m² | - |
| 1788277299 | 28.33° C | 82% | 1010.6 hPa | 0 mm | 0.89 m/s, 207° | 0 W/m² | - |
| 1788277237 | 28.33° C | 82% | 1010.8 hPa | 0 mm | 0.45 m/s, 218° | 0 W/m² | - |
| 1788277176 | 28.33° C | 82% | 1010.7 hPa | 0 mm | 0.89 m/s, 217° | 0 W/m² | - |
| 1788277115 | 28.33° C | 82% | 1010.7 hPa | 0 mm | 1.79 m/s, 240° | 0 W/m² | - |
| 1788277054 | 28.33° C | 82% | 1010.8 hPa | 0 mm | 0.89 m/s, 238° | 0 W/m² | - |
| 1788276993 | 28.33° C | 82% | 1010.7 hPa | 0 mm | 0.89 m/s, 264° | 0 W/m² | - |
| 1788276946 | 28.33° C | 82% | 1010.8 hPa | 0 mm | 0.89 m/s, 252° | 0 W/m² | - |
| 1788276874 | 28.33° C | 82% | 1010.9 hPa | 0 mm | 0.89 m/s, 225° | 0 W/m² | - |
| 1788276810 | 28.33° C | 82% | 1010.8 hPa | 0 mm | 0.45 m/s, 255° | 0 W/m² | - |
| 1788276749 | 28.33° C | 82% | 1010.8 hPa | 0 mm | 0.89 m/s, 273° | 0 W/m² | - |
| 1788276688 | 28.33° C | 82% | 1011 hPa | 0 mm | 0.89 m/s, 247° | 0 W/m² | - |
| 1788276627 | 28.33° C | 82% | 1010.9 hPa | 0 mm | 0.89 m/s, 227° | 0 W/m² | - |
| 1788276566 | 28.33° C | 82% | 1010.9 hPa | 0 mm | 1.79 m/s, 247° | 0 W/m² | - |
| 1788276505 | 28.33° C | 82% | 1011 hPa | 0 mm | 1.79 m/s, 236° | 0 W/m² | - |
| 1788276444 | 28.33° C | 82% | 1010.8 hPa | 0 mm | 0.89 m/s, 242° | 0 W/m² | - |
| 1788276383 | 28.33° C | 82% | 1010.9 hPa | 0 mm | 1.34 m/s, 259° | 0 W/m² | - |
| 1788276322 | 28.33° C | 82% | 1010.7 hPa | 0 mm | 0.45 m/s, 189° | 0 W/m² | - |
| 1788276262 | 28.33° C | 82% | 1010.8 hPa | 0 mm | 0.89 m/s, 254° | 0 W/m² | - |
| 1788276200 | 28.33° C | 82% | 1010.7 hPa | 0 mm | 1.34 m/s, 221° | 0 W/m² | - |
| 1788276139 | 28.33° C | 82% | 1010.6 hPa | 0 mm | 1.34 m/s, 212° | 0 W/m² | - |
* Rain latest hour (hover to see other rain measurements)
** Current wind speed in m/s (hover to see current wind gust speed)